[[{"header":{"parameterUnit":"m.s-1","parameterCategory":1,"la1":30.2991,"la2":30.254,"lo1":-89.0895,"lo2":-89.0444,"dy":0.0017,"dx":0.0017,"nx":28,"ny":28,"refTime":"2024-11-22T09:00:00:Z","depth":0,"parameterNumber":2,"parameterNumberName":"U-component_of_WINDS"},"data":[0,0,0,0,0,0,0,0,0,0,0,0,0,0,0,0,0,0,0,0,0,0,0,0,0,0,0,0,0,0,0,0,0,0,0,0,0,0,0,0,0,0,0,0,0,0,0,0,0,0,0,0,0,0,0,0,0,0,0.0457,0.0458,0,0.0544,0.0545,0.0546,0.0631,0.0632,0.0633,0.0634,0.0723,0.0725,0.0726,0,0,0,0,0,0,0,0,0,0,0,0,0,0.0364,0.0365,0.0457,0.0458,0.0459,0.0544,0.0545,0.0546,0.063,0.0632,0.0633,0.0634,0.0723,0.0724,0.0726,0,0,0,0,0,0,0,0,0,0,0,0,0,0.0423,0.0365,0.0457,0.0511,0.0517,0.0544,0.0545,0.0547,0.063,0.0632,0.0633,0.0635,0.0722,0.0724,0.0726,0.0706,0,0,0.0732,0.0733,0,0,0,0,0,0,0,0,0.0419,0.0426,0.0502,0.0508,0.0514,0.0578,0.0545,0.06,0.063,0.0587,0.0634,0.0636,0.0674,0.068,0.0693,0.071,0.0714,0.0733,0.0734,0.0735,0.0735,0,0,0,0,0,0,0,0.0415,0.0423,0.0492,0.0503,0.0511,0.0531,0.0542,0.0556,0.062,0.0591,0.0597,0.0607,0.0677,0.069,0.0695,0.0715,0.0733,0.0734,0.0736,0.0736,0.072,0.0719,0,0,0,0,0,0,0.0403,0.0419,0.0489,0.0494,0.047,0.0532,0.0543,0.0556,0.062,0.0632,0.0605,0.061,0.0686,0.0693,0.0699,0.0679,0.0735,0.0737,0.0738,0.0722,0.072,0.0718,0,0,0,0,0,0,0.04,0.0408,0.0485,0.0458,0.047,0.0532,0.0545,0.0557,0.057,0.0631,0.0643,0.0607,0.0688,0.0696,0.0703,0.0683,0.0738,0.0739,0.0724,0.0721,0.0719,0.064,0,0,0,0,0,0,0.0397,0.0407,0.04,0.0457,0.0471,0.0488,0.0544,0.0557,0.0573,0.0581,0.0636,0.0646,0.069,0.07,0.0705,0.0687,0.0741,0.0726,0.0723,0.072,0.0644,0.0635,0.0626,0,0,0,0,0,0.0394,0.0374,0.0399,0.0407,0.0463,0.0487,0.0495,0.0545,0.0571,0.0565,0.0604,0.0644,0.0684,0.07,0.0707,0.0689,0.0727,0.0724,0.072,0.0648,0.0637,0.0627,0,0,0,0,0,0,0.0313,0.0383,0.0411,0.041,0.0442,0.0501,0.0495,0.0531,0.0556,0.0562,0.0624,0.0635,0.0636,0.0663,0.0679,0.0672,0.0712,0.0709,0.0655,0.0644,0.0635,0.0629,0.0743,0,0,0,0,0,0.0295,0.0308,0.0369,0.0361,0.0376,0.0432,0.0444,0.048,0.0516,0.053,0.057,0.0603,0.0623,0.0635,0.0657,0.0648,0.0661,0.0639,0.063,0.0623,0.062,0.0617,0.0608,0.0706,0.0706,0.0706,0,0,0.0258,0.0297,0.0302,0.0346,0.0375,0.0388,0.0443,0.0454,0.0464,0.0532,0.0542,0.0571,0.0612,0.0611,0.0613,0.0634,0.0596,0.0618,0.0612,0.0613,0.0612,0.0603,0.0595,0.0703,0.0704,0.0704,0,0,0.0197,0.0228,0.0225,0.0253,0.0296,0.0334,0.0333,0.0387,0.0409,0.042,0.0471,0.0483,0.0517,0.0544,0.0562,0.051,0.0548,0.0515,0.0469,0.0465,0.0458,0.0451,0.0432,0.0425,0.0512,0.0512,0.0512,0,0.0145,0.0166,0.022,0.0227,0.0245,0.0306,0.0304,0.0329,0.0376,0.0387,0.041,0.0453,0.0485,0.0491,0.0478,0.0491,0.0492,0.0509,0.0454,0.0448,0.0443,0.0426,0.0419,0.0508,0.0508,0.0508,0.0509,0,0.0101,0.0114,0.0107,0.0151,0.0168,0.017,0.0224,0.0235,0.0269,0.0303,0.0313,0.0353,0.0384,0.0388,0.0422,0.0399,0.0411,0.0443,0.0484,0.0428,0.0413,0.0407,0.0501,0.0503,0.0504,0.0505,0,0,-0.0008,0.0065,0.0062,0.0082,0.0134,0.0146,0.015,0.0181,0.0188,0.0219,0.0225,0.0251,0.0281,0.0301,0.0338,0.0335,0.0291,0.0368,0.037,0.0352,0.0268,0.0243,0.0235,0.0316,0.0315,0.0314,0.0264,0,-0.006,-0.0047,0.0,-0.0001,0.0012,0.007,0.0074,0.0106,0.0139,0.0154,0.019,0.0208,0.0246,0.0259,0.0258,0.0296,0.0275,0.03,0.0322,0.0322,0.031,0.0227,0.0201,0.0152,0.0259,0.0258,0.0257,0,-0.0119,-0.0093,-0.0093,-0.0042,-0.0035,-0.0032,-0.0001,0.0013,0.005,0.0074,0.0096,0.0137,0.0145,0.0182,0.0195,0.0211,0.0222,0.0242,0.0242,0.0246,0.0286,0.0229,0.0138,0.0131,0.0248,0.0249,0.025,0,-0.0199,-0.0163,-0.0159,-0.0143,-0.0083,-0.0083,-0.0058,-0.0019,-0.0005,0.0022,0.0033,0.006,0.0075,0.0095,0.0142,0.0165,0.0149,0.019,0.0169,0.0167,0.0163,0.0163,0.0073,0.017,0.017,0.017,0.017,0,-0.0262,-0.0264,-0.0194,-0.0191,-0.0192,-0.0138,-0.014,-0.011,-0.0076,-0.0067,-0.0015,-0.0008,0.0054,0.0069,0.0106,0.011,0.0116,0.0136,0.0145,0.0131,0.0129,0.014,0.0145,0.0168,0.0169,0.0169,0.0169,0,-0.035,-0.0303,-0.0294,-0.0239,-0.0226,-0.0229,-0.0182,-0.0177,-0.0142,-0.0131,-0.0125,-0.007,-0.0051,-0.0002,0.0031,0.0056,0.005,0.0068,0.0037,0.0044,0.0019,0.0021,-0.0066,-0.0075,0.0027,0.0026,0.0025,0,-0.0393,-0.0394,-0.0339,-0.0329,-0.0307,-0.0291,-0.0276,-0.0223,-0.0209,-0.0167,-0.0168,-0.0144,-0.0122,-0.0094,-0.0051,-0.0026,-0.0007,-0.0039,-0.0002,-0.0017,-0.0007,-0.0008,-0.0007,-0.0047,-0.0048,-0.0049,-0.005,0,-0.0475,-0.0452,-0.0432,-0.0404,-0.0388,-0.0363,-0.0336,-0.0331,-0.0271,-0.0258,-0.0238,-0.0221,-0.0188,-0.0165,-0.0134,-0.0108,-0.007,-0.0062,-0.0066,-0.008,-0.0098,-0.0089,0.0016,-0.006,-0.0059,-0.0059,-0.0058,-0.0058,-0.0541,-0.054,-0.0501,-0.0481,-0.0455,-0.0431,-0.0424,-0.0389,-0.037,-0.0339,-0.0309,-0.0292,-0.0255,-0.0209,-0.0186,-0.0172,-0.0152,-0.0157,-0.0159,-0.0161,-0.0167,-0.0101,-0.0166,-0.0166,-0.0165,-0.0165,-0.0165,0,-0.062,-0.0593,-0.0575,-0.0539,-0.0523,-0.0489,-0.0457,-0.0446,-0.0432,-0.0401,-0.0381,-0.0357,-0.0335,-0.0291,-0.0265,-0.0262,-0.0244,-0.0257,-0.0257,-0.0252,-0.0186,-0.0186,-0.0273,-0.0273,-0.0273,-0.0273,-0.0273,-0.0273,-0.0659,-0.0654,-0.0627,-0.0609,-0.0581,-0.0564,-0.0549,-0.0527,-0.0502,-0.0478,-0.046,-0.0431,-0.0395,-0.0366,-0.0345,-0.0332,-0.0325,-0.0344,-0.0326,-0.0266,-0.0256,-0.0246,-0.0246,-0.0343,-0.0343,-0.0392,-0.0393,-0.0393]},{"header":{"parameterUnit":"m.s-1","parameterCategory":1,"la1":30.2991,"la2":30.254,"lo1":-89.0895,"lo2":-89.0444,"dy":0.0017,"dx":0.0017,"nx":28,"ny":28,"refTime":"2024-11-22T09:00:00:Z","depth":0,"parameterNumber":3,"parameterNumberName":"V-component_of_WINDS"},"data":[0,0,0,0,0,0,0,0,0,0,0,0,0,0,0,0,0,0,0,0,0,0,0,0,0,0,0,0,0,0,0,0,0,0,0,0,0,0,0,0,0,0,0,0,0,0,0,0,0,0,0,0,0,0,0,0,0,0,0.9462,0.9462,0,0.9451,0.9451,0.9451,0.9471,0.9472,0.9472,0.9473,0.946,0.9459,0.9458,0,0,0,0,0,0,0,0,0,0,0,0,0,0.9498,0.9497,0.9462,0.9462,0.9462,0.9451,0.9451,0.9451,0.9471,0.9472,0.9473,0.9473,0.946,0.9459,0.9458,0,0,0,0,0,0,0,0,0,0,0,0,0,0.9484,0.9497,0.9462,0.947,0.9471,0.9451,0.9451,0.9451,0.9471,0.9472,0.9473,0.9474,0.946,0.9459,0.9457,0.9428,0,0,0.9453,0.9452,0,0,0,0,0,0,0,0,0.9485,0.9483,0.9469,0.947,0.947,0.9463,0.9459,0.9443,0.947,0.9471,0.9473,0.9474,0.946,0.9459,0.9454,0.9427,0.9427,0.9453,0.9452,0.9451,0.9451,0,0,0,0,0,0,0,0.9486,0.9483,0.9457,0.9469,0.947,0.9474,0.9473,0.9456,0.946,0.9471,0.9472,0.9471,0.946,0.9456,0.9454,0.9427,0.9453,0.9452,0.9451,0.945,0.9376,0.9375,0,0,0,0,0,0,0.9486,0.9484,0.9458,0.9457,0.948,0.9473,0.9472,0.9465,0.946,0.946,0.947,0.9472,0.9458,0.9456,0.9454,0.9419,0.9451,0.945,0.9449,0.9377,0.9375,0.9374,0,0,0,0,0,0,0.9487,0.9484,0.9458,0.9471,0.9468,0.9471,0.9463,0.9464,0.9459,0.9459,0.946,0.9464,0.9458,0.9456,0.9435,0.9419,0.9449,0.9448,0.9378,0.9376,0.9375,0.9349,0,0,0,0,0,0,0.9488,0.9484,0.9473,0.9471,0.9467,0.944,0.9462,0.9463,0.9457,0.9459,0.9454,0.9455,0.9459,0.9437,0.9433,0.9417,0.9447,0.9379,0.9377,0.9375,0.9351,0.9347,0.9343,0,0,0,0,0,0.9489,0.9465,0.9472,0.9469,0.9454,0.9439,0.9437,0.9443,0.9455,0.9444,0.9445,0.9455,0.9421,0.9434,0.943,0.9414,0.938,0.9378,0.9375,0.9353,0.9348,0.9343,0,0,0,0,0,0,0.9465,0.9465,0.9473,0.9448,0.9443,0.9442,0.9428,0.9437,0.9428,0.943,0.9438,0.9437,0.9414,0.9412,0.9426,0.9386,0.9403,0.94,0.9387,0.9382,0.9378,0.9378,0.9446,0,0,0,0,0,0.9457,0.9445,0.9446,0.9424,0.9421,0.9425,0.9419,0.9424,0.9419,0.9417,0.9416,0.941,0.9398,0.939,0.9379,0.9352,0.9351,0.9339,0.9334,0.9331,0.9328,0.9313,0.9307,0.9366,0.9366,0.9366,0,0,0.9439,0.9438,0.943,0.9419,0.9416,0.9403,0.9423,0.9408,0.9399,0.9414,0.9394,0.9393,0.9388,0.9363,0.9352,0.9361,0.9311,0.9328,0.9325,0.9324,0.931,0.9304,0.9299,0.9364,0.9365,0.9365,0,0,0.9401,0.9399,0.9381,0.9378,0.9373,0.9376,0.9372,0.937,0.937,0.935,0.9362,0.9351,0.933,0.9326,0.9321,0.9282,0.9291,0.9278,0.9256,0.9241,0.9237,0.9233,0.9219,0.9214,0.9275,0.9275,0.9275,0,0.938,0.9361,0.937,0.9355,0.9349,0.9364,0.9346,0.9342,0.9334,0.933,0.934,0.9315,0.9312,0.9287,0.9278,0.9273,0.9268,0.9278,0.9237,0.9233,0.9229,0.9216,0.9211,0.9274,0.9274,0.9274,0.9274,0,0.9335,0.9322,0.9308,0.9301,0.9294,0.9277,0.9283,0.9275,0.9281,0.9283,0.9263,0.926,0.9249,0.9244,0.9249,0.9219,0.9225,0.9236,0.9253,0.9222,0.9209,0.9204,0.9272,0.9272,0.9273,0.9273,0,0,0.928,0.9279,0.9274,0.9271,0.9268,0.9257,0.9241,0.9232,0.9224,0.9219,0.9205,0.9188,0.9198,0.9193,0.9198,0.9186,0.9155,0.9198,0.9198,0.919,0.9121,0.9113,0.9107,0.9161,0.9161,0.916,0.9122,0,0.9242,0.9215,0.9223,0.9195,0.9183,0.9198,0.9184,0.918,0.9181,0.9171,0.9173,0.9161,0.9176,0.9172,0.9161,0.9161,0.9141,0.9164,0.9148,0.9147,0.9148,0.91,0.9091,0.9055,0.9117,0.9116,0.9116,0,0.9193,0.9187,0.9158,0.9158,0.9153,0.914,0.9132,0.9123,0.9119,0.9121,0.9115,0.9123,0.9107,0.9126,0.9103,0.9118,0.9112,0.9112,0.9111,0.9109,0.9129,0.9096,0.9044,0.9038,0.9108,0.9109,0.9109,0,0.9155,0.9139,0.912,0.9118,0.9117,0.9107,0.9106,0.9104,0.9097,0.909,0.9087,0.9077,0.9072,0.9065,0.907,0.9083,0.9047,0.9066,0.9047,0.9047,0.9038,0.9038,0.8983,0.9035,0.9036,0.9036,0.9036,0,0.9111,0.9093,0.9103,0.9091,0.9072,0.9081,0.9061,0.9062,0.9059,0.9048,0.906,0.9048,0.9057,0.9046,0.905,0.9031,0.9028,0.9029,0.903,0.9028,0.9027,0.9023,0.9025,0.9034,0.9035,0.9035,0.9035,0,0.9065,0.9071,0.9051,0.9053,0.9053,0.9038,0.9039,0.9027,0.9031,0.9016,0.9013,0.9017,0.9005,0.901,0.8997,0.9,0.8975,0.898,0.8977,0.8978,0.8959,0.8961,0.8898,0.8891,0.8948,0.8948,0.8947,0,0.9036,0.9023,0.9023,0.9016,0.9015,0.9004,0.8998,0.9007,0.9001,0.8996,0.8985,0.8975,0.8967,0.8947,0.8948,0.8939,0.8943,0.8922,0.8941,0.8939,0.8942,0.8943,0.8941,0.8918,0.8917,0.8916,0.8916,0,0.8984,0.8988,0.898,0.8972,0.8965,0.896,0.8955,0.8949,0.8958,0.895,0.8939,0.8932,0.892,0.8909,0.8901,0.8899,0.8909,0.891,0.8905,0.8902,0.89,0.8901,0.8965,0.8911,0.8912,0.8912,0.8912,0.8912,0.8945,0.8934,0.8933,0.8923,0.8921,0.8917,0.8906,0.8909,0.89,0.8891,0.8897,0.8883,0.888,0.887,0.8868,0.8857,0.8865,0.8858,0.8856,0.8854,0.8852,0.8903,0.8855,0.8856,0.8856,0.8856,0.8856,0,0.8893,0.8894,0.8885,0.8879,0.8871,0.8882,0.8878,0.8871,0.8859,0.8856,0.8848,0.8835,0.8825,0.8826,0.8817,0.8808,0.8812,0.8805,0.8805,0.8805,0.8845,0.885,0.8802,0.8802,0.8802,0.8802,0.8802,0.8802,0.8865,0.8847,0.8851,0.8832,0.8832,0.882,0.8817,0.8813,0.881,0.8796,0.8788,0.8789,0.8788,0.8779,0.877,0.8771,0.8766,0.8758,0.876,0.8797,0.8802,0.8807,0.8812,0.8757,0.8757,0.8721,0.872,0.872]}]]